FW7044 Weather Reports


Display with metric or nautical units.
time (UTC)temp
F
wind
direction
speed
MPH
gust
MPH
rain 1hr
in
rain 24hr
in
rain mn
in
humidity
%
barometer
mb
20260505001442 77 75 2.0 3.0 0.00 0.00 0.00 81 1016.1
20260505000939 77 203 4.0 5.0 0.00 0.00 0.00 81 1016.1
20260505000437 77 114 2.0 3.0 0.00 0.00 0.00 80 1016.0
20260504235934 77 148 3.0 5.0 0.00 0.00 0.00 79 1015.6
20260504235431 77 104 3.0 3.0 0.00 0.00 0.00 78 1015.6
20260504234927 77 343 3.0 3.0 0.00 0.00 0.00 77 1015.6
20260504234425 77 84 2.0 2.0 0.00 0.00 0.00 77 1015.7
20260504233921 77 97 2.0 2.0 0.00 0.00 0.00 77 1015.6
20260504233417 77 163 4.0 5.0 0.00 0.00 0.00 76 1015.7
20260504232914 77 30 1.0 2.0 0.00 0.00 0.00 75 1015.5
20260504232411 77 163 2.0 3.0 0.00 0.00 0.00 76 1015.5
20260504231908 78 115 3.0 3.0 0.00 0.00 0.00 75 1015.6
20260504231404 78 337 1.0 1.0 0.00 0.00 0.00 75 1015.4
20260504230900 78 7 1.0 2.0 0.00 0.00 0.00 75 1015.6
20260504230358 78 224 1.0 1.0 0.00 0.00 0.00 74 1015.5
20260504225857 78 32 2.0 3.0 0.00 0.00 0.00 74 1015.7
20260504225353 78 34 5.0 9.0 0.00 0.00 0.00 73 1015.6
20260504224850 78 74 2.0 5.0 0.00 0.00 0.00 74 1015.7
20260504224347 78 166 6.0 9.0 0.00 0.00 0.00 73 1015.6
20260504223843 78 3 3.0 6.0 0.00 0.00 0.00 74 1015.5
20260504223339 78 129 3.0 8.0 0.00 0.00 0.00 74 1015.8
20260504222836 78 29 1.0 2.0 0.00 0.00 0.00 74 1015.7
20260504222333 79 318 1.0 1.0 0.00 0.00 0.00 73 1015.7
20260504221831 78 10 1.0 2.0 0.00 0.00 0.00 74 1015.6
20260504221327 78 64 7.0 9.0 0.00 0.00 0.00 73 1015.5
20260504220825 78 75 2.0 3.0 0.00 0.00 0.00 74 1015.7
20260504220321 79 34 3.0 8.0 0.00 0.00 0.00 73 1015.5
20260504215819 79 62 2.0 2.0 0.00 0.00 0.00 72 1015.4
20260504215315 79 309 3.0 3.0 0.00 0.00 0.00 71 1015.5
20260504214811 79 18 2.0 5.0 0.00 0.00 0.00 72 1015.6
20260504214308 79 96 9.0 11.0 0.00 0.00 0.00 72 1015.6
20260504213805 79 93 3.0 3.0 0.00 0.00 0.00 72 1015.8
20260504213301 79 120 3.0 5.0 0.00 0.00 0.00 72 1015.8
20260504212759 79 74 5.0 7.0 0.00 0.00 0.00 71 1015.7
20260504212254 80 333 5.0 7.0 0.00 0.00 0.00 71 1015.5
20260504211752 81 109 5.0 7.0 0.00 0.00 0.00 69 1015.7
20260504211248 82 257 2.0 3.0 0.00 0.00 0.00 68 1015.7
20260504210746 82 267 4.0 7.0 0.00 0.00 0.00 67 1015.6
20260504210243 80 148 3.0 5.0 0.00 0.00 0.00 69 1015.8
20260504205739 80 179 3.0 5.0 0.00 0.00 0.00 69 1015.8
20260504205238 80 147 4.0 6.0 0.00 0.00 0.00 70 1015.7
20260504204735 82 82 4.0 7.0 0.00 0.00 0.00 68 1016.0
20260504204233 82 97 8.0 13.0 0.00 0.00 0.00 69 1015.9
20260504203733 80 122 6.0 8.0 0.00 0.00 0.00 71 1015.9
20260504203229 79 172 5.0 8.0 0.00 0.00 0.00 71 1016.0
20260504202724 80 105 4.0 5.0 0.00 0.00 0.00 71 1016.1
20260504202221 80 120 5.0 6.0 0.00 0.00 0.00 72 1016.0
20260504201718 79 83 6.0 8.0 0.00 0.00 0.00 72 1016.0
20260504201215 79 150 4.0 5.0 0.00 0.00 0.00 72 1016.0
20260504200713 79 154 5.0 7.0 0.00 0.00 0.00 72 1016.2
20260504200209 79 95 6.0 8.0 0.00 0.00 0.00 72 1016.1
20260504195705 79 114 8.0 10.0 0.00 0.00 0.00 72 1016.2
20260504195201 80 70 3.0 5.0 0.00 0.00 0.00 71 1016.2
20260504194658 80 91 2.0 3.0 0.00 0.00 0.00 72 1016.4
20260504194153 80 151 3.0 5.0 0.00 0.00 0.00 71 1016.4
20260504193651 80 346 3.0 3.0 0.00 0.00 0.00 71 1016.3
20260504193148 81 99 5.0 9.0 0.00 0.00 0.00 70 1016.6
20260504192646 82 173 0.0 1.0 0.00 0.00 0.00 69 1016.5
20260504192144 80 55 2.0 2.0 0.00 0.00 0.00 71 1016.5
20260504191642 81 113 2.0 7.0 0.00 0.00 0.00 72 1016.5
20260504191138 82 97 6.0 8.0 0.00 0.00 0.00 70 1016.5
20260504190634 82 58 7.0 9.0 0.00 0.00 0.00 68 1016.4
20260504190131 81 2 5.0 7.0 0.00 0.00 0.00 71 1016.5
20260504185628 79 350 8.0 9.0 0.00 0.00 0.00 73 1016.8
20260504185125 78 359 2.0 3.0 0.00 0.00 0.00 75 1016.9
20260504184620 79 97 3.0 3.0 0.00 0.00 0.00 75 1017.0
20260504184115 80 88 8.0 15.0 0.00 0.00 0.00 73 1017.1
20260504183613 80 105 7.0 11.0 0.00 0.00 0.00 71 1017.2
20260504183111 80 63 4.0 5.0 0.00 0.00 0.00 71 1017.2
20260504182608 79 29 1.0 2.0 0.00 0.00 0.00 73 1017.2
20260504182105 80 118 3.0 5.0 0.00 0.00 0.00 73 1017.2
20260504181602 80 330 2.0 5.0 0.00 0.00 0.00 72 1017.3
20260504181100 81 11 2.0 3.0 0.00 0.00 0.00 71 1017.2
20260504180559 82 117 8.0 9.0 0.00 0.00 0.00 71 1017.3
20260504180057 80 72 3.0 3.0 0.00 0.00 0.00 72 1017.4
20260504175554 80 334 4.0 6.0 0.00 0.00 0.00 73 1017.4
20260504175051 81 50 7.0 11.0 0.00 0.00 0.00 72 1017.3
20260504174549 82 71 4.0 7.0 0.00 0.00 0.00 69 1017.4
20260504174045 80 121 2.0 2.0 0.00 0.00 0.00 72 1017.1
20260504173542 79 59 3.0 5.0 0.00 0.00 0.00 74 1017.5
20260504173040 80 358 1.0 2.0 0.00 0.00 0.00 73 1017.6
20260504172536 80 102 5.0 8.0 0.00 0.00 0.00 72 1017.6
20260504172032 80 62 2.0 3.0 0.00 0.00 0.00 72 1017.3
20260504171530 80 226 3.0 6.0 0.00 0.00 0.00 71 1017.6
20260504171026 80 17 3.0 5.0 0.00 0.00 0.00 70 1017.2
20260504170522 81 48 4.0 7.0 0.00 0.00 0.00 71 1017.6
20260504160442 81 92 4.0 5.0 0.00 0.00 0.00 70 1017.8
20260504150906 80 85 2.0 3.0 0.00 0.00 0.00 73 1018.0
20260504150403 79 344 4.0 7.0 0.00 0.00 0.00 73 1017.8
20260504141333 79 347 2.0 2.0 0.00 0.00 0.00 72 1017.3
20260504140829 80 20 2.0 2.0 0.00 0.00 0.00 72 1017.3
20260504140325 80 53 4.0 8.0 0.00 0.00 0.00 70 1017.3
20260504130754 78 54 1.0 1.0 0.00 0.00 0.00 74 1016.9
20260504130250 78 49 2.0 2.0 0.00 0.00 0.00 73 1016.9
20260504120214 76 31 4.0 8.0 0.00 0.00 0.00 77 1016.1
20260504110635 76 149 2.0 5.0 0.00 0.00 0.00 81 1015.6
20260504110131 75 9 5.0 8.0 0.00 0.00 0.00 82 1015.8
20260504100551 75 330 0.0 0.0 0.00 0.00 0.00 84 1015.3
20260504081945 76 340 1.0 2.0 0.00 0.00 0.00 83 1015.1
20260504081442 76 331 3.0 3.0 0.00 0.00 0.00 83 1015.1
20260504080938 75 346 2.0 3.0 0.00 0.00 0.00 83 1014.7
20260504080435 75 328 1.0 2.0 0.00 0.00 0.00 83 1015.2
20260504070402 76 3 3.0 3.0 0.00 0.00 0.00 83 1015.5
20260504050750 76 312 2.0 2.0 0.00 0.00 0.00 84 1016.7
20260504050247 76 331 0.0 1.0 0.00 0.00 0.00 83 1016.6
20260504045744 76 342 0.0 0.0 0.00 0.00 0.00 84 1016.7
20260504045239 76 6 1.0 2.0 0.00 0.00 0.00 83 1016.7
20260504044737 76 348 2.0 2.0 0.00 0.00 0.00 83 1016.8
20260504044234 76 329 1.0 2.0 0.00 0.00 0.00 83 1016.7
20260504043731 76 88 1.0 1.0 0.00 0.00 0.00 83 1016.8
20260504043228 76 18 1.0 2.0 0.00 0.00 0.00 83 1016.9
20260504042726 76 6 1.0 1.0 0.00 0.00 0.00 83 1016.8
20260504042222 76 334 0.0 0.0 0.00 0.00 0.00 83 1017.1
20260504041718 76 333 0.0 0.0 0.00 0.00 0.00 82 1016.8
20260504041214 76 39 1.0 2.0 0.00 0.00 0.00 83 1017.0
20260504040710 76 326 0.0 0.0 0.00 0.00 0.00 83 1016.9
20260504040208 76 149 2.0 2.0 0.00 0.00 0.00 83 1017.2
20260504035704 76 134 3.0 3.0 0.00 0.22 0.22 83 1017.2
20260504035202 76 146 1.0 2.0 0.00 0.22 0.22 84 1017.2
20260504034659 76 331 0.0 0.0 0.00 0.22 0.22 84 1017.3
20260504034156 76 115 2.0 2.0 0.00 0.22 0.22 84 1017.1
20260504033654 76 112 3.0 3.0 0.00 0.22 0.22 84 1017.4
20260504033151 75 3 0.0 1.0 0.00 0.22 0.22 84 1017.3
20260504032647 75 311 1.0 1.0 0.00 0.22 0.22 84 1017.2
20260504032145 76 45 2.0 3.0 0.00 0.22 0.22 84 1017.5
20260504031642 75 58 2.0 2.0 0.00 0.22 0.22 84 1017.4
20260504031138 75 131 1.0 3.0 0.00 0.22 0.22 85 1017.4
20260504030634 75 332 0.0 0.0 0.00 0.22 0.22 85 1017.3
20260504030131 75 327 0.0 1.0 0.00 0.22 0.22 84 1017.4
20260504025628 75 357 0.0 1.0 0.00 0.22 0.22 85 1017.6
20260504025125 75 357 0.0 0.0 0.00 0.22 0.22 84 1017.4
20260504024622 75 18 3.0 3.0 0.00 0.22 0.22 84 1017.3
20260504024119 75 334 0.0 0.0 0.00 0.22 0.22 85 1017.3
20260504023615 75 347 0.0 0.0 0.00 0.22 0.22 85 1017.3
20260504023111 75 308 0.0 0.0 0.00 0.22 0.22 86 1017.1
20260504022608 75 339 0.0 1.0 0.00 0.22 0.22 86 1017.2
20260504022103 75 336 0.0 0.0 0.00 0.22 0.22 87 1017.2
20260504021602 74 17 2.0 2.0 0.00 0.22 0.22 87 1017.3
20260504021058 74 339 1.0 2.0 0.00 0.22 0.22 87 1017.3
20260504020555 74 332 0.0 0.0 0.00 0.22 0.22 87 1017.1
20260504020051 74 346 2.0 3.0 0.00 0.22 0.22 87 1017.1
20260504015548 74 335 1.0 1.0 0.00 0.22 0.22 87 1017.3
20260504015044 74 329 0.0 0.0 0.00 0.22 0.22 87 1017.0
20260504014540 74 52 1.0 1.0 0.00 0.22 0.22 87 1017.0
20260504014038 74 285 1.0 1.0 0.00 0.22 0.22 87 1016.9
20260504013535 74 339 0.0 0.0 0.00 0.22 0.22 88 1017.0
20260504013032 74 17 0.0 0.0 0.00 0.22 0.22 87 1016.9
20260504012530 74 346 0.0 0.0 0.00 0.22 0.22 88 1016.8
20260504012027 74 0 0.0 0.0 0.00 0.22 0.22 88 1017.3
20260504011524 74 76 2.0 3.0 0.00 0.22 0.22 88 1016.9
20260504011020 74 346 0.0 0.0 0.00 0.22 0.22 88 1016.8
20260504010515 74 171 3.0 3.0 0.00 0.22 0.22 87 1017.0
20260504010012 74 6 1.0 2.0 0.00 0.22 0.22 87 1016.7
20260504005509 75 29 3.0 3.0 0.00 0.22 0.22 87 1017.1
20260504005006 75 351 1.0 2.0 0.00 0.22 0.22 86 1016.5
20260504004504 75 3 0.0 1.0 0.00 0.22 0.22 86 1016.5
20260504004000 75 343 1.0 2.0 0.00 0.22 0.22 85 1016.6
20260504003456 75 351 1.0 2.0 0.00 0.22 0.22 85 1016.6
20260504002954 75 355 1.0 1.0 0.00 0.22 0.22 85 1016.7
20260504002450 75 340 0.0 1.0 0.00 0.22 0.22 85 1016.6
20260504001948 75 335 0.0 0.0 0.00 0.22 0.22 84 1016.4